timestamp,surface_pressure_avg,surface_temp_avg,battery_voltage,lat,long
2018-12-02 00:00:00+00:00,230.8714,3.7,13.05,47.84626,-54.09684
2018-12-02 00:10:00+00:00,226.3098,3.69,12.97,47.84626,-54.09684
2018-12-02 00:20:00+00:00,225.2281,3.62,13.05,47.84626,-54.09684
2018-12-02 00:30:00+00:00,224.5064,3.6,13.05,47.84626,-54.09684
2018-12-02 00:40:00+00:00,220.6281,3.6,13.13,47.84626,-54.09684
2018-12-02 00:50:00+00:00,216.9131,3.58,13.13,47.84626,-54.09684
2018-12-02 01:00:00+00:00,216.4765,3.6,13.05,47.84626,-54.09684
2018-12-02 01:10:00+00:00,214.2715,3.7,12.97,47.84626,-54.09684
2018-12-02 01:20:00+00:00,210.6464,3.82,13.05,47.84626,-54.09684
2018-12-02 01:30:00+00:00,213.5547,3.9,13.05,47.84626,-54.09684
2018-12-02 01:40:00+00:00,218.9031,3.97,13.05,47.84626,-54.09684
2018-12-02 01:50:00+00:00,220.8215,4.0,13.13,47.84626,-54.09684
2018-12-02 02:00:00+00:00,219.8514,4.0,13.05,47.84626,-54.09684
2018-12-02 02:10:00+00:00,221.938,4.0,12.97,47.84626,-54.09684
2018-12-02 02:20:00+00:00,225.4681,4.0,13.05,47.84626,-54.09684
2018-12-02 02:30:00+00:00,226.4081,4.0,13.05,47.84626,-54.09684
2018-12-02 02:40:00+00:00,227.1897,4.0,13.05,47.84626,-54.09684
2018-12-02 02:50:00+00:00,228.9148,4.0,13.05,47.84626,-54.09684
2018-12-02 03:00:00+00:00,231.4398,4.0,13.05,47.84626,-54.09684
2018-12-02 03:10:00+00:00,234.2414,4.0,12.97,47.84626,-54.09684
2018-12-02 03:20:00+00:00,238.8198,4.0,13.05,47.84626,-54.09684
2018-12-02 03:30:00+00:00,242.2364,4.0,13.05,47.84626,-54.09684
2018-12-02 03:40:00+00:00,245.3431,4.0,13.05,47.84626,-54.09684
2018-12-02 03:50:00+00:00,252.2281,4.0,13.05,47.84626,-54.09684
2018-12-02 04:00:00+00:00,261.8781,3.99,13.05,47.84626,-54.09684
2018-12-02 04:10:00+00:00,269.3597,3.99,12.97,47.84626,-54.09684
2018-12-02 04:20:00+00:00,274.2947,3.97,13.05,47.84626,-54.09684
2018-12-02 04:30:00+00:00,278.6431,3.9,13.05,47.84626,-54.09684
2018-12-02 04:40:00+00:00,286.443,3.9,13.05,47.84626,-54.09684
2018-12-02 04:50:00+00:00,293.3963,3.9,13.05,47.84626,-54.09684
2018-12-02 05:00:00+00:00,300.9247,3.9,12.97,47.84626,-54.09684
2018-12-02 05:10:00+00:00,308.3396,3.9,12.97,47.84626,-54.09684
2018-12-02 05:20:00+00:00,316.578,3.91,13.05,47.84626,-54.09684
2018-12-02 05:30:00+00:00,319.3614,3.94,13.05,47.84626,-54.09684
2018-12-02 05:40:00+00:00,321.8813,3.97,13.05,47.84626,-54.09684
2018-12-02 05:50:00+00:00,325.8947,3.97,13.05,47.84626,-54.09684
2018-12-02 06:00:00+00:00,327.9463,3.97,12.97,47.84626,-54.09684
2018-12-02 06:10:00+00:00,332.0013,3.97,12.97,47.84626,-54.09684
2018-12-02 06:20:00+00:00,336.8547,3.99,13.05,47.84626,-54.09684
2018-12-02 06:30:00+00:00,341.1313,3.99,13.05,47.84626,-54.09684
2018-12-02 06:40:00+00:00,342.4778,3.99,13.05,47.84626,-54.09684
2018-12-02 06:50:00+00:00,343.813,3.99,13.05,47.84626,-54.09684
2018-12-02 07:00:00+00:00,347.8781,3.98,12.97,47.84626,-54.09684
2018-12-02 07:10:00+00:00,346.7096,3.98,12.89,47.84626,-54.09684
2018-12-02 07:20:00+00:00,346.7596,3.99,12.97,47.84626,-54.09684
2018-12-02 07:30:00+00:00,347.0098,4.0,13.05,47.84626,-54.09684
2018-12-02 07:40:00+00:00,346.9879,4.0,13.05,47.84626,-54.09684
2018-12-02 07:50:00+00:00,344.963,4.0,13.05,47.84626,-54.09684
2018-12-02 08:00:00+00:00,343.488,4.0,12.97,47.84626,-54.09684
2018-12-02 08:10:00+00:00,343.1346,4.0,12.89,47.84626,-54.09684
2018-12-02 08:20:00+00:00,340.593,3.9,12.97,47.84626,-54.09684
2018-12-02 08:30:00+00:00,334.6563,3.92,12.97,47.84626,-54.09684
2018-12-02 08:40:00+00:00,332.5296,3.97,13.05,47.84626,-54.09684
2018-12-02 08:50:00+00:00,328.2364,3.99,13.05,47.84626,-54.09684
2018-12-02 09:00:00+00:00,318.4796,3.99,12.97,47.84626,-54.09684
2018-12-02 09:10:00+00:00,313.6246,3.99,12.89,47.84626,-54.09684
2018-12-02 09:20:00+00:00,313.908,3.99,12.97,47.84626,-54.09684
2018-12-02 09:30:00+00:00,309.7131,4.0,12.97,47.84626,-54.09684
2018-12-02 09:40:00+00:00,299.933,3.98,13.05,47.84626,-54.09684
2018-12-02 09:50:00+00:00,296.313,3.99,13.05,47.84626,-54.09684
2018-12-02 10:00:00+00:00,295.1647,4.0,12.97,47.84626,-54.09684
2018-12-02 10:10:00+00:00,285.3181,3.96,12.89,47.84626,-54.09684
2018-12-02 10:20:00+00:00,276.0381,3.85,12.97,47.84626,-54.09684
2018-12-02 10:30:00+00:00,274.853,3.93,12.97,47.84626,-54.09684
2018-12-02 10:40:00+00:00,273.5648,3.99,13.05,47.84626,-54.09684
2018-12-02 10:50:00+00:00,262.3264,3.9,13.05,47.84626,-54.09684
2018-12-02 11:00:00+00:00,256.2596,3.8,12.97,47.84626,-54.09684
2018-12-02 11:10:00+00:00,257.8182,3.8,12.89,47.84626,-54.09684
2018-12-02 11:20:00+00:00,256.1897,3.8,12.97,47.84626,-54.09684
2018-12-02 11:30:00+00:00,252.1381,3.74,13.05,47.84626,-54.09684
2018-12-02 11:40:00+00:00,252.8514,3.79,13.21,47.84626,-54.09684
2018-12-02 11:50:00+00:00,251.2731,3.89,13.37,47.84626,-54.09684
2018-12-02 12:00:00+00:00,242.8814,3.8,13.29,47.84626,-54.09684
2018-12-02 12:10:00+00:00,234.9914,3.8,13.6,47.84626,-54.09684
2018-12-02 12:20:00+00:00,233.5215,3.88,14.32,47.84626,-54.09684
2018-12-02 12:30:00+00:00,231.8914,3.9,16.55,47.84626,-54.09684
2018-12-02 12:40:00+00:00,227.5031,3.9,14.64,47.84626,-54.09684
2018-12-02 12:50:00+00:00,222.6564,3.9,16.55,47.84626,-54.09684
2018-12-02 13:00:00+00:00,220.9332,3.9,16.47,47.84626,-54.09684
2018-12-02 13:10:00+00:00,221.7331,3.9,14.64,47.84626,-54.09684
2018-12-02 13:20:00+00:00,220.2982,3.87,14.48,47.84626,-54.09684
2018-12-02 13:30:00+00:00,216.7547,3.8,14.4,47.84626,-54.09684
2018-12-02 13:40:00+00:00,216.4815,3.7,14.64,47.84626,-54.09684
2018-12-02 13:50:00+00:00,218.5365,3.6,14.64,47.84626,-54.09684
2018-12-02 14:00:00+00:00,218.6964,3.62,14.4,47.84626,-54.09684
2018-12-02 14:10:00+00:00,216.4731,3.5,14.16,47.84626,-54.09684
2018-12-02 14:20:00+00:00,216.6881,3.2,14.08,47.84626,-54.09684
2018-12-02 14:30:00+00:00,219.9164,3.35,14.0,47.84626,-54.09684
2018-12-02 14:40:00+00:00,222.7014,3.53,13.92,47.84626,-54.09684
2018-12-02 14:50:00+00:00,224.3731,3.64,13.92,47.84626,-54.09684
2018-12-02 15:00:00+00:00,227.7498,3.8,13.92,47.84626,-54.09684
2018-12-02 15:10:00+00:00,230.1664,3.88,13.84,47.84626,-54.09684
2018-12-02 15:20:00+00:00,231.1447,3.9,14.0,47.84626,-54.09684
2018-12-02 15:30:00+00:00,234.1998,3.9,14.0,47.84626,-54.09684
2018-12-02 15:40:00+00:00,238.218,3.9,14.08,47.84626,-54.09684
2018-12-02 15:50:00+00:00,236.9831,3.9,14.08,47.84626,-54.09684
2018-12-02 16:00:00+00:00,236.4998,3.9,14.0,47.84626,-54.09684
2018-12-02 16:10:00+00:00,243.0314,3.9,14.0,47.84626,-54.09684
2018-12-02 16:20:00+00:00,249.8715,3.9,14.16,47.84626,-54.09684
2018-12-02 16:30:00+00:00,251.7565,3.9,14.32,47.84626,-54.09684
2018-12-02 16:40:00+00:00,256.1231,3.9,14.56,47.84626,-54.09684
2018-12-02 16:50:00+00:00,266.1331,3.93,15.6,47.84626,-54.09684
2018-12-02 17:00:00+00:00,270.3414,3.96,14.64,47.84626,-54.09684
2018-12-02 17:10:00+00:00,272.5681,3.96,14.64,47.84626,-54.09684
2018-12-02 17:20:00+00:00,282.9064,3.93,15.83,47.84626,-54.09684
2018-12-02 17:30:00+00:00,294.8646,3.93,14.96,47.84626,-54.09684
2018-12-02 17:40:00+00:00,297.0282,3.94,14.88,47.84626,-54.09684
2018-12-02 17:50:00+00:00,298.6664,3.9,14.88,47.84626,-54.09684
2018-12-02 18:00:00+00:00,306.3796,3.93,14.72,47.84626,-54.09684
2018-12-02 18:10:00+00:00,311.6913,3.96,14.48,47.84626,-54.09684
2018-12-02 18:20:00+00:00,309.3114,3.96,14.64,47.84626,-54.09684
2018-12-02 18:30:00+00:00,308.4846,3.98,14.48,47.84626,-54.09684
2018-12-02 18:40:00+00:00,314.9362,3.98,14.32,47.84626,-54.09684
2018-12-02 18:50:00+00:00,319.263,3.99,14.24,47.84626,-54.09684
2018-12-02 19:00:00+00:00,325.0997,4.0,14.24,47.84626,-54.09684
2018-12-02 19:10:00+00:00,326.7547,3.99,14.0,47.84626,-54.09684
2018-12-02 19:20:00+00:00,328.4279,3.99,13.92,47.84626,-54.09684
2018-12-02 19:30:00+00:00,328.4529,4.0,13.84,47.84626,-54.09684
2018-12-02 19:40:00+00:00,332.463,3.99,13.76,47.84626,-54.09684
2018-12-02 19:50:00+00:00,336.0113,3.98,13.68,47.84626,-54.09684
2018-12-02 20:00:00+00:00,336.6511,3.99,13.6,47.84626,-54.09684
2018-12-02 20:10:00+00:00,336.758,4.0,13.37,47.84626,-54.09684
2018-12-02 20:20:00+00:00,338.9797,4.0,13.37,47.84626,-54.09684
2018-12-02 20:30:00+00:00,338.9197,3.99,13.37,47.84626,-54.09684
2018-12-02 20:40:00+00:00,337.783,3.99,13.29,47.84626,-54.09684
2018-12-02 20:50:00+00:00,338.7546,4.0,13.29,47.84626,-54.09684
2018-12-02 21:00:00+00:00,336.0663,4.0,13.21,47.84626,-54.09684
2018-12-02 21:10:00+00:00,332.8312,4.0,13.13,47.84626,-54.09684
2018-12-02 21:20:00+00:00,332.5013,4.0,13.13,47.84626,-54.09684
2018-12-02 21:30:00+00:00,331.983,4.0,13.13,47.84626,-54.09684
2018-12-02 21:40:00+00:00,325.0563,3.99,13.21,47.84626,-54.09684
2018-12-02 21:50:00+00:00,318.4563,4.0,13.21,47.84626,-54.09684
2018-12-02 22:00:00+00:00,313.353,4.0,13.05,47.84626,-54.09684
2018-12-02 22:10:00+00:00,305.5464,3.99,12.97,47.84626,-54.09684
2018-12-02 22:20:00+00:00,299.5696,3.97,13.05,47.84626,-54.09684
2018-12-02 22:30:00+00:00,297.1464,3.95,13.05,47.84626,-54.09684
2018-12-02 22:40:00+00:00,293.6114,3.97,13.13,47.84626,-54.09684
2018-12-02 22:50:00+00:00,283.7964,3.93,13.13,47.84626,-54.09684
2018-12-02 23:00:00+00:00,278.6713,3.93,13.05,47.84626,-54.09684
2018-12-02 23:10:00+00:00,274.2213,3.9,12.97,47.84626,-54.09684
2018-12-02 23:20:00+00:00,261.3398,3.9,13.05,47.84626,-54.09684
2018-12-02 23:30:00+00:00,250.8381,3.89,13.05,47.84626,-54.09684
2018-12-02 23:40:00+00:00,247.6314,3.9,13.05,47.84626,-54.09684
2018-12-02 23:50:00+00:00,243.4647,3.9,13.05,47.84626,-54.09684
